CZ-6A DEB, 54917

Orbit data source: Space-Track

CZ-6A DEB, 54917 is space debris in SSO originally from a launch on Fri, 11 Nov 2022 UTC launched from the Taiyaun Space Center, China (TSC). Debris objects in space refer to the collection of defunct objects orbiting the Earth. Examples of debris include non-operational satellites, rocket bodies, and fragments generated from explosions, collisions, or faulty payload assembly.

Loading next visibility...
Identifier
54917, 2022-151RE
Orbit
SSO
Country
Flag of CNCN / PRC
Related business
Manufacturer
SAST
Mission
Spacecraft
Bus & Motor
Unknown
Mass
Unknown
Launch date (UTC)
2022-11-11 (4 years ago)
Launch vehicle
Unknown
Launch site
Taiyaun Space Center, China (TSC)
Object type
Payload
Rocket body
Debris
Shape & HBR
Unknown shape, 0.1 m
Radar Cross Section
Medium (>0.1 m² and <1 m²)

Expand to show TLE details & history
Last TLE update: 23 hours ago

TLE from 23 hours ago
0 CZ-6A DEB
1 54917U 22151RE  26206.14907427  .00015963  00000-0  22627-2 0  9992
2 54917  98.6369 280.6441 0071224 147.8294 212.7289 14.75351025192865
Epoch: 2026-07-25T03:34Z
TLE epoch observation values (Epoch: 2026-07-25T03:34:40.016Z)
Latitude
-0.00003°
Longitude
-75.88813°
Altitude
689.216 km
Speed
7.489 km/s
True Right ascension
18h 42m 34s
True Declination
0° 00' 00"
Sunlit
Object was in full shadow at epoch
Visualization orbit readout
Latitude
Unknown
Longitude
Unknown
Altitude
Unknown
Speed
Unknown
Apparent Right ascension
Unknown
Apparent Declination
Unknown
Sunlit
N/A
Visualization observer readout
Local Sidereal Time
16:11:08
Azimuth
Unknown
Elevation
Unknown
Doppler factor
Unknown
Orbital elements
Apogee altitude
691.112 km
Perigee altitude
591.125 km
Semi-major axis
7,019.255 km
Eccentricity
0.00712
Inclination
98.6369°
RAAN
280.6441°
Arg. of periapsis
147.8294°
True anomaly
212.29091°
Mean anomaly
212.7289°
Eccentric anomaly
212.50958°
Mean motion
3.69068 °/min
Orbital period
97.54 mins
BSTAR
0.0022627
Loading maneuver chart data...
Computing Atmospheric mass density...
Loading historical data...
Loading historical data...
Loading historical data...
Loading historical data...
Loading historical data...
Loading historical data...
Loading historical data...

Documentation

Showing up to 5 results
|